SFR570 FAOR-HTZA

Flight info

Callsign SFR570
Flight time N/A
Altitude 35000
Route EGMEN1C EGMEN UQ2 EPSEK UM307 VBR UM310 DV
Aircraft B738/M-SDE2E3FGHIRWXY/LB1

Departure

Time 2026-05-01 15:04
Airport O.R. Tambo International Airport (FAOR)

Arrival

Time N/A
Airport Abeid Amani Karume International Airport (HTZA)
Time Latitude Longitude Altitude Speed Heading
2026-05-01 14:25 -26.13341 28.23294 5566 ft 0 kts 275°
2026-05-01 14:43 -26.13341 28.23295 5566 ft 1 kts 275°
2026-05-01 14:43 -26.13342 28.23309 5566 ft 2 kts 277°
2026-05-01 14:44 -26.13344 28.23327 5566 ft 2 kts 281°
2026-05-01 14:44 -26.13354 28.23361 5566 ft 2 kts 302°
2026-05-01 14:44 -26.13363 28.23374 5566 ft 2 kts 328°
2026-05-01 14:45 -26.13375 28.23379 5566 ft 2 kts
2026-05-01 14:45 -26.13403 28.23376 5566 ft 0 kts
2026-05-01 14:49 -26.13402 28.23376 5566 ft 0 kts
2026-05-01 14:50 -26.13385 28.23378 5566 ft 3 kts
2026-05-01 14:50 -26.13369 28.23380 5566 ft 0 kts
2026-05-01 14:51 -26.13351 28.23382 5566 ft 3 kts
2026-05-01 14:52 -26.13297 28.23389 5566 ft 5 kts
2026-05-01 14:52 -26.13260 28.23395 5566 ft 6 kts
2026-05-01 14:52 -26.13187 28.23409 5566 ft 0 kts 10°
2026-05-01 14:53 -26.13185 28.23409 5566 ft 1 kts 10°
2026-05-01 14:53 -26.13173 28.23412 5566 ft 3 kts 10°
2026-05-01 14:53 -26.13150 28.23416 5566 ft 4 kts
2026-05-01 14:54 -26.13121 28.23423 5566 ft 4 kts 34°
2026-05-01 14:54 -26.13114 28.23458 5566 ft 6 kts 95°
2026-05-01 14:54 -26.13119 28.23513 5566 ft 8 kts 95°
2026-05-01 14:54 -26.13126 28.23587 5566 ft 11 kts 96°
2026-05-01 14:55 -26.13132 28.23658 5566 ft 7 kts 96°
2026-05-01 14:55 -26.13135 28.23687 5566 ft 3 kts 109°
2026-05-01 14:55 -26.13148 28.23695 5566 ft 3 kts 179°
2026-05-01 14:55 -26.13173 28.23688 5566 ft 5 kts 196°
2026-05-01 14:56 -26.13215 28.23675 5566 ft 7 kts 196°
2026-05-01 14:56 -26.13271 28.23656 5566 ft 10 kts 196°
2026-05-01 14:56 -26.13341 28.23634 5566 ft 11 kts 196°
2026-05-01 14:56 -26.13423 28.23607 5566 ft 13 kts 196°
2026-05-01 14:57 -26.13511 28.23579 5566 ft 13 kts 195°
2026-05-01 14:57 -26.13692 28.23522 5566 ft 15 kts 195°
2026-05-01 14:57 -26.13794 28.23490 5566 ft 16 kts 196°
2026-05-01 14:58 -26.13904 28.23456 5566 ft 17 kts 196°
2026-05-01 14:58 -26.14003 28.23427 5566 ft 15 kts 194°
2026-05-01 14:58 -26.14106 28.23396 5566 ft 13 kts 195°
2026-05-01 14:58 -26.14198 28.23369 5566 ft 14 kts 195°
2026-05-01 14:59 -26.14298 28.23338 5566 ft 16 kts 195°
2026-05-01 14:59 -26.14395 28.23306 5566 ft 11 kts 199°
2026-05-01 14:59 -26.14473 28.23276 5566 ft 13 kts 199°
2026-05-01 14:59 -26.14524 28.23272 5566 ft 8 kts 170°
2026-05-01 15:00 -26.14587 28.23300 5566 ft 3 kts 131°
2026-05-01 15:00 -26.14593 28.23309 5566 ft 0 kts 121°
2026-05-01 15:01 -26.14595 28.23312 5566 ft 1 kts 121°
2026-05-01 15:01 -26.14600 28.23324 5566 ft 3 kts 116°
2026-05-01 15:01 -26.14606 28.23348 5566 ft 4 kts 101°
2026-05-01 15:01 -26.14612 28.23388 5566 ft 6 kts 97°
2026-05-01 15:02 -26.14607 28.23427 5566 ft 6 kts 60°
2026-05-01 15:02 -26.14586 28.23446 5566 ft 5 kts 25°
2026-05-01 15:02 -26.14575 28.23450 5566 ft 0 kts 15°
2026-05-01 15:02 -26.14558 28.23455 5566 ft 14 kts 15°
2026-05-01 15:03 -26.14253 28.23542 5566 ft 76 kts 19°
2026-05-01 15:03 -26.13563 28.23756 5566 ft 129 kts 16°
2026-05-01 15:03 -26.12549 28.24076 5566 ft 175 kts 15°
2026-05-01 15:03 -26.11291 28.24483 5877 ft 198 kts 15°
2026-05-01 15:04 -26.09951 28.24975 6593 ft 201 kts 17°
2026-05-01 15:04 -26.08643 28.25531 7385 ft 202 kts 15°
2026-05-01 15:04 -26.07288 28.25961 8113 ft 202 kts
2026-05-01 15:04 -26.05924 28.26319 8731 ft 208 kts
2026-05-01 15:05 -26.04438 28.26714 8988 ft 230 kts
2026-05-01 15:05 -26.02789 28.27188 9214 ft 257 kts 14°
2026-05-01 15:05 -26.01223 28.28305 9586 ft 286 kts 40°
2026-05-01 15:05 -26.00116 28.30200 10306 ft 299 kts 64°
2026-05-01 15:06 -25.99589 28.32468 11039 ft 306 kts 76°
2026-05-01 15:06 -25.99226 28.34812 11767 ft 309 kts 78°
2026-05-01 15:06 -25.98887 28.37190 12474 ft 313 kts 78°
2026-05-01 15:06 -25.98524 28.39591 13168 ft 316 kts 78°
2026-05-01 15:07 -25.98198 28.41991 13840 ft 319 kts 77°
2026-05-01 15:07 -25.97789 28.44425 14513 ft 321 kts 75°
2026-05-01 15:07 -25.97338 28.46873 15182 ft 324 kts 75°
2026-05-01 15:07 -25.96872 28.49342 15811 ft 328 kts 76°
2026-05-01 15:08 -25.96397 28.51820 16492 ft 329 kts 76°
2026-05-01 15:08 -25.95913 28.54315 17131 ft 331 kts 77°
2026-05-01 15:08 -25.95427 28.56804 17722 ft 334 kts 77°
2026-05-01 15:08 -25.94925 28.59364 18329 ft 336 kts 78°
2026-05-01 15:09 -25.94434 28.61862 18974 ft 336 kts 78°
2026-05-01 15:09 -25.93931 28.64411 19551 ft 338 kts 78°
2026-05-01 15:09 -25.93329 28.66966 19962 ft 346 kts 69°
2026-05-01 15:09 -25.92194 28.69323 20471 ft 348 kts 53°
2026-05-01 15:10 -25.90622 28.71366 21008 ft 348 kts 43°
2026-05-01 15:10 -25.86985 28.74981 22062 ft 352 kts 38°
2026-05-01 15:10 -25.85139 28.76741 22552 ft 356 kts 37°
2026-05-01 15:11 -25.83259 28.78550 23011 ft 359 kts 37°
2026-05-01 15:11 -25.79476 28.82223 24062 ft 362 kts 37°
2026-05-01 15:11 -25.77579 28.84074 24547 ft 364 kts 37°
2026-05-01 15:12 -25.75699 28.85930 25287 ft 356 kts 33°
2026-05-01 15:12 -25.71988 28.89551 26076 ft 366 kts 34°
2026-05-01 15:12 -25.70055 28.91448 26380 ft 372 kts 34°
2026-05-01 15:13 -25.64286 28.97128 28026 ft 367 kts 35°
2026-05-01 15:14 -25.60766 29.01217 29020 ft 368 kts 39°
2026-05-01 15:14 -25.59028 29.03319 29370 ft 371 kts 38°
2026-05-01 15:14 -25.55489 29.07548 30019 ft 377 kts 38°
2026-05-01 15:15 -25.51885 29.11815 30681 ft 381 kts 37°
2026-05-01 15:15 -25.48250 29.16100 31317 ft 386 kts 37°
2026-05-01 15:16 -25.44565 29.20441 32011 ft 388 kts 37°
2026-05-01 15:16 -25.40846 29.24869 32515 ft 395 kts 37°
2026-05-01 15:17 -25.37060 29.29375 32994 ft 402 kts 37°
2026-05-01 15:18 -25.31316 29.36201 33736 ft 410 kts 37°
2026-05-01 15:18 -25.29367 29.38515 33978 ft 412 kts 37°
2026-05-01 15:19 -25.23448 29.45536 34657 ft 420 kts 37°
2026-05-01 15:19 -25.19423 29.50319 35038 ft 427 kts 38°
2026-05-01 15:19 -25.17392 29.52735 35047 ft 431 kts 38°
2026-05-01 15:20 -25.11288 29.59979 35056 ft 427 kts 38°
2026-05-01 15:21 -25.07241 29.64770 35072 ft 427 kts 38°
2026-05-01 15:21 -25.03218 29.69542 35084 ft 427 kts 38°
2026-05-01 15:22 -24.97135 29.76727 35081 ft 426 kts 38°
2026-05-01 15:22 -24.93081 29.81501 35076 ft 426 kts 38°
2026-05-01 15:23 -24.89024 29.86275 35079 ft 426 kts 37°
2026-05-01 15:23 -24.85001 29.91003 35104 ft 426 kts 37°
2026-05-01 15:24 -24.80946 29.95802 35124 ft 427 kts 38°
2026-05-01 15:24 -24.76920 30.00570 35147 ft 427 kts 38°
2026-05-01 15:25 -24.72871 30.05360 35137 ft 427 kts 38°
2026-05-01 15:25 -24.68818 30.10171 35127 ft 427 kts 38°
2026-05-01 15:26 -24.64776 30.14962 35117 ft 427 kts 38°
2026-05-01 15:26 -24.60756 30.19730 35115 ft 428 kts 39°
2026-05-01 15:27 -24.56756 30.24514 35127 ft 421 kts 39°
2026-05-01 15:28 -24.50770 30.31683 35105 ft 427 kts 39°
2026-05-01 15:28 -24.46753 30.36483 35100 ft 426 kts 39°
2026-05-01 15:29 -24.40766 30.43628 35118 ft 425 kts 39°
2026-05-01 15:30 -24.33432 30.52395 35100 ft 426 kts 39°
2026-05-01 15:31 -24.20727 30.67540 35132 ft 424 kts 39°
2026-05-01 15:32 -24.12797 30.76962 35093 ft 421 kts 39°
2026-05-01 15:34 -24.00882 30.91082 35100 ft 421 kts 39°